Clarksburg, WV

8:12 AM EST on December 13, 2019 (GMT -0500)
Benedum

Weather History for KCKB - November, 2019

Change the Weather History Date:

Tuesday, November 12, 2019

  Actual Average Record
Temperature  
Mean Temperature 34 °F -  
Max Temperature 47 °F 51 °F 75 °F (1927)
Min Temperature 20 °F 33 °F 14 °F (1926)
Degree Days  
Heating Degree Days 31    
Month to date heating degree days 269  
Moisture  
Dew Point 24 °F    
Average Humidity 74    
Maximum Humidity 89    
Minimum Humidity 59    
Precipitation  
Precipitation 0.14 in - - ()
Month to date precipitation 0.69  
Year to date precipitation 36.09  
Sea Level Pressure  
Sea Level Pressure 30.12 in    
Wind  
Wind Speed 10 mph (WNW)    
Max Wind Speed 20 mph    
Max Gust Speed 29 mph    
Visibility 5 miles    
Events Fog , Rain , Snow    
Averages and records for this station are not official NWS values.
T = Trace of Precipitation, MM = Missing Value Source: NWS Daily Summary

Daily Weather History Graph

Daily Weather History Graph

Search for Another Location

Airport or City:

Astronomy

Nov. 12, 2019 Rise Set
Actual Time 7:00 AM EST 5:08 PM EST
Civil Twilight 6:32 AM EST 5:37 PM EST
Nautical Twilight 6:00 AM EST 6:09 PM EST
Astronomical Twilight 5:28 AM EST 6:41 PM EST
Moon 5:34 PM EST (11/12) 6:51 AM EST (11/12)
Length of Visible Light 11h 04m
Length of Day
10h 07m
Full, 100% of the Moon is Illuminated
Nov 12
Full
Nov 19
Last Quarter
Nov 26
New
Dec 4
First Quarter
Dec 12
Full

Hourly Weather History & Observations

Time (EST) Temp. Windchill Dew Point Humidity Pressure Visibility Wind Dir Wind Speed Gust Speed Precip Events Conditions
12:43 AM 45.0 °F 40.6 °F 39.9 °F 82% 29.88 in 9.0 mi WNW 8.1 mph - 0.04 in Rain Light Rain
12:53 AM 45.0 °F 39.3 °F 39.9 °F 82% 29.86 in 10.0 mi WNW 11.5 mph - 0.04 in Rain Light Rain
1:53 AM 39.9 °F 31.4 °F 34.0 °F 79% 29.92 in 10.0 mi WNW 16.1 mph 21.9 mph 0.02 in Rain Light Rain
2:15 AM 37.0 °F 28.9 °F 32.0 °F 82% 29.95 in 5.0 mi WNW 12.7 mph - 0.02 in Snow Light Snow
2:29 AM 36.0 °F 30.3 °F 32.0 °F 86% 29.97 in 5.0 mi West 6.9 mph - 0.02 in Snow Light Snow
2:37 AM 36.0 °F 29.6 °F 32.0 °F 86% 29.97 in 4.0 mi WNW 8.1 mph - 0.03 in Snow Light Snow
2:53 AM 35.1 °F 29.3 °F 30.9 °F 85% 29.96 in 2.5 mi West 6.9 mph - 0.04 in Snow Light Snow
3:20 AM 35.1 °F 30.1 °F 30.9 °F 85% 29.98 in 1.5 mi WSW 5.8 mph - 0.02 in Snow Light Snow
3:29 AM 35.1 °F 29.3 °F 30.9 °F 85% 29.98 in 2.0 mi WSW 6.9 mph - 0.03 in Snow Light Snow
3:43 AM 35.1 °F 29.3 °F 30.9 °F 85% 29.99 in 3.0 mi West 6.9 mph - 0.03 in Snow Light Snow
3:49 AM 35.6 °F 30.7 °F 30.2 °F 81% 29.99 in 2.5 mi WSW 5.8 mph - 0.03 in Snow Light Snow
3:51 AM 35.6 °F 30.7 °F 30.2 °F 81% 29.99 in 2.5 mi WSW 5.8 mph - 0.03 in Snow Light Snow
3:53 AM 35.1 °F 29.3 °F 30.9 °F 85% 29.97 in 2.0 mi West 6.9 mph - 0.03 in Snow Light Snow
4:19 AM 35.1 °F 29.3 °F 30.9 °F 85% 29.99 in 3.0 mi West 6.9 mph - 0.01 in Snow Light Snow
4:53 AM 35.1 °F 29.3 °F 30.9 °F 85% 30.00 in 5.0 mi West 6.9 mph - 0.01 in Snow Light Snow
5:53 AM 34.0 °F 26.6 °F 30.0 °F 85% 30.01 in 5.0 mi West 9.2 mph - 0.00 in Snow Light Snow
6:53 AM 34.0 °F 27.2 °F 28.9 °F 82% 30.04 in 3.0 mi WNW 8.1 mph - 0.00 in Snow Light Snow
7:14 AM 33.1 °F 26.1 °F 28.9 °F 85% 30.06 in 2.5 mi West 8.1 mph - 0.00 in Snow Light Snow
7:22 AM 34.0 °F 27.2 °F 28.9 °F 82% 30.06 in 5.0 mi West 8.1 mph - 0.00 in Snow Light Snow
7:33 AM 33.1 °F 23.9 °F 28.9 °F 85% 30.07 in 6.0 mi West 12.7 mph 17.3 mph 0.00 in   Overcast
7:43 AM 33.1 °F 25.5 °F 28.0 °F 82% 30.08 in 2.5 mi West 9.2 mph - 0.00 in Snow Light Snow
7:53 AM 33.1 °F 24.4 °F 28.0 °F 82% 30.08 in 4.0 mi WNW 11.5 mph - 0.00 in Snow Light Snow
8:09 AM 33.1 °F 24.9 °F 28.0 °F 82% 30.09 in 1.5 mi West 10.4 mph - 0.00 in Snow Light Snow
8:16 AM 33.1 °F 26.9 °F 28.0 °F 82% 30.09 in 1.2 mi West 6.9 mph - 0.00 in Snow Light Snow
8:19 AM 33.1 °F 26.9 °F 28.0 °F 82% 30.10 in 1.2 mi West 6.9 mph - 0.00 in Snow Light Snow
8:33 AM 32.0 °F 24.2 °F 28.0 °F 85% 30.10 in 0.5 mi West 9.2 mph - 0.00 in Fog , Snow Light Snow
8:53 AM 32.0 °F 24.2 °F 27.0 °F 82% 30.10 in 3.0 mi West 9.2 mph - 0.00 in Snow Light Snow
9:53 AM 30.9 °F 21.2 °F 24.1 °F 76% 30.12 in 7.0 mi West 12.7 mph - 0.00 in Snow Light Snow
10:53 AM 30.0 °F 20.0 °F 21.9 °F 72% 30.16 in 10.0 mi West 12.7 mph - 0.00 in Snow Light Snow
11:07 AM 30.0 °F 19.5 °F 21.9 °F 72% 30.15 in 10.0 mi WNW 13.8 mph - 0.00 in   Overcast
12:53 PM 28.0 °F 18.1 °F 21.0 °F 75% 30.18 in 8.0 mi WNW 11.5 mph 24.2 mph 0.00 in Snow Light Snow
1:53 PM 28.0 °F 16.1 °F 18.0 °F 66% 30.20 in 8.0 mi WNW 16.1 mph 20.7 mph 0.00 in Snow Light Snow
2:46 PM 27.0 °F 15.2 °F 18.0 °F 69% 30.19 in 1.8 mi WNW 15.0 mph - 0.00 in Snow Light Snow
2:53 PM 27.0 °F 16.1 °F 19.0 °F 72% 30.22 in 0.8 mi WNW 12.7 mph 23.0 mph 0.00 in Snow Light Snow
2:56 PM 27.0 °F 15.6 °F 19.0 °F 72% 30.19 in 1.0 mi West 13.8 mph 23.0 mph 0.00 in Snow Light Snow
3:15 PM 28.0 °F 20.0 °F 17.1 °F 63% 30.20 in 10.0 mi West 8.1 mph - 0.00 in   Mostly Cloudy
3:53 PM 27.0 °F 16.1 °F 17.1 °F 66% 30.23 in 9.0 mi West 12.7 mph - 0.00 in   Scattered Clouds
4:04 PM 27.0 °F 16.7 °F 18.0 °F 69% 30.21 in 5.0 mi WNW 11.5 mph - 0.00 in Snow Light Snow
4:14 PM 27.0 °F 14.3 °F 18.0 °F 69% 30.21 in 1.5 mi NW 17.3 mph 23.0 mph 0.00 in Snow Light Snow
4:17 PM 26.1 °F 15.0 °F 18.0 °F 71% 30.21 in 0.5 mi WNW 12.7 mph 23.0 mph 0.00 in Snow Snow
4:29 PM 26.1 °F 16.2 °F 19.0 °F 75% 30.21 in 2.5 mi WNW 10.4 mph - 0.00 in Snow Light Snow
4:36 PM 26.1 °F 16.2 °F 18.0 °F 71% 30.22 in 9.0 mi WNW 10.4 mph - 0.00 in Snow Light Snow
4:53 PM 26.1 °F 12.3 °F 17.1 °F 69% 30.25 in 1.8 mi NW 19.6 mph 28.8 mph 0.01 in Snow Light Snow
4:58 PM 24.1 °F 10.6 °F 18.0 °F 77% 30.22 in 0.5 mi NW 17.3 mph 28.8 mph 0.00 in Snow Snow
5:09 PM 24.1 °F 13.7 °F 17.1 °F 75% 30.23 in 2.0 mi WNW 10.4 mph 19.6 mph 0.00 in Snow Light Snow
5:53 PM 24.1 °F 14.4 °F 16.0 °F 71% 30.27 in 10.0 mi West 9.2 mph - 0.00 in   Mostly Cloudy
6:53 PM 24.1 °F 13.7 °F 15.1 °F 69% 30.30 in 10.0 mi WNW 10.4 mph 16.1 mph N/A   Clear
7:53 PM 23.0 °F 13.9 °F 10.9 °F 60% 30.33 in 10.0 mi NW 8.1 mph - N/A   Clear
8:53 PM 21.9 °F 14.5 °F 10.0 °F 60% 30.35 in 10.0 mi NW 5.8 mph - N/A   Clear
9:53 PM 21.0 °F 11.4 °F 10.0 °F 63% 30.37 in 10.0 mi WNW 8.1 mph - N/A   Clear
10:53 PM 19.9 °F 14.9 °F 9.0 °F 62% 30.37 in 10.0 mi Variable 3.5 mph - N/A   Clear
11:53 PM 19.9 °F - 9.0 °F 62% 30.38 in 10.0 mi Calm Calm - N/A   Clear